Location: *
(43.9905°S, 176.4941°W)
Time: 19:05:59
(UTC+00:00)

CZ-2C R/B - Pass Details

Date: 08 December 2019
Orbit: 705 x 907 km, 98.1° (Epoch: 18 January)

Event Time Altitude Azimuth Distance (km) Brightness Sun altitude
Rises 09:01:06 0° 169° (S) 3,542 7.1 -14.3°
Reaches altitude 10° 09:03:35 10° 170° (S) 2,577 6.4 -14.5°
Maximum altitude 09:09:19 74° 253° (WSW) 903 3.5 -15.1°
Drops below altitude 10° 09:14:43 10° 337° (NNW) 2,426 5.3 -15.7°
Enters shadow 09:15:42 - 338° (NNW) 2,810 5.6 -15.8°
